Location: Unspecified
(51.0000°N, 12.0000°E)
Time: 19:38:17
(UTC+01:00)

ISS - Visible Passes

Search period start: 07 December 2025 00:00
Search period end: 17 December 2025 00:00
Orbit: 416 x 421 km, 51.6° (Epoch: 06 December)

Date Brightness Start Highest point End Pass type
(mag) Time Alt. Az. Time Alt. Az. Time Alt. Az.
11 Dec -0.4 07:15:16 10° S 07:17:02 14° SE 07:18:50 10° ESE visible
13 Dec -1.4 07:14:39 10° SSW 07:17:35 27° SSE 07:20:30 10° E visible
14 Dec -1.0 06:27:16 10° S 06:29:46 19° SE 06:32:16 10° E visible
15 Dec -0.7 05:40:16 10° SSE 05:41:58 13° SE 05:43:40 10° ESE visible
15 Dec -2.8 07:14:53 10° SW 07:18:10 51° SSE 07:21:28 10° E visible
16 Dec -2.3 06:27:04 10° SW 06:30:13 37° SSE 06:33:22 10° E visible
